Location: Julian California
(33.0790°N, 116.6010°W)
Time: 04:24:01
(UTC-07:00)

NOSS 2 (A) - Pass Details

Date: 14 June 2018
Orbit: 273 x 1575 km, 63.3° (Epoch: 06 February)

Event Time Altitude Azimuth Distance (km) Brightness Sun altitude
Rises 20:51:47 0° 334° (NNW) 1,908 9.3 -10.6°
Reaches altitude 10° 20:53:36 10° 340° (NNW) 1,115 7.9 -10.9°
Maximum altitude 20:55:55 54° 59° (ENE) 374 4.3 -11.2°
Enters shadow 20:57:24 21° 131° (SE) 778 5.5 -11.5°
